Regional Weather Roundup
Issued by NWS Sterling, VA

Home | Current Version | Previous Version | Graphics & Text | Print | Product List | Glossary On
Versions: 1 2 3 4 5 6 7 8 9 10 11 12 13 14 15 16 17 18 19 20 21 22 23 24 25 26 27 28 29 30 31 32 33 34 35 36 37 38 39 40 41 42 43 44 45 46 47 48 49 50
000
ASUS41 KLWX 021510
RWRLWX

REGIONAL WEATHER ROUNDUP
NATIONAL WEATHER SERVICE BALTIMORE MD/WASHINGTON DC
1000 AM EST MON MAR 02 2015

Note: "FAIR" indicates few or no clouds below 12,000 feet
with no significant weather and/or obstructions to visibility.
 TC=TEMPERATURE CELSIUS

 * =Non NWS site. Station does not report precipitation (e.g. rain,
    snow, etc.), thunder, or fog.

DCZ001-MDZ009-015-VAZ040>042-051-053>054-021600-
WASHINGTON METRO

CITY           SKY/WX    TMP DP  RH WIND       PRES   REMARKS
WASHINGTON NAT PTSUNNY   39  31  72 VRB5      30.27R
DULLES         PTSUNNY   40  25  55 NW25G36   30.25R
ANDREWS AFB    SUNNY     40  38  96 NW14G20   30.25R
FT BELVOIR     MOSUNNY   40  39  95 VRB5      30.26R
QUANTICO       MOSUNNY   44  32  62 N20G26    30.28R
COLLEGE PARK*  MOSUNNY   41  32  70 NW15      30.26R
LEESBURG*      SUNNY     41  28  60 NW25G36   30.26R
MANASSAS*      SUNNY     41  32  70 N18G28    30.26R
GAITHERSBURG*  SUNNY     37  25  60 NW18G28   30.28R WCI  27

$$

MDZ006>007-011-014-021600-
BALTIMORE METRO

CITY           SKY/WX    TMP DP  RH WIND       PRES   REMARKS
BWI AIRPORT    MOSUNNY   39  30  70 NW10G20   30.24R
MD SCIENCE CTR   N/A      1 N/A N/A MISG      30.26R
ANNAPOLIS      SUNNY     38  31  76 NW9       30.25R
FORT MEADE*    MOSUNNY   37  34  87 NW7       30.27R

$$

MDZ012-015-019>023-021600-
MARYLAND EASTERN SHORE

CITY           SKY/WX    TMP DP  RH WIND       PRES   REMARKS
OCEAN CITY     CLOUDY    34  33  96 NW6       30.21R FOG
SALISBURY      CLOUDY    37  33  85 W6        30.21R FOG
BAY BRIDGE AP*   N/A     36  34  93 NW9       30.26R WCI  29
CAMBRIDGE*     MOSUNNY   36  34  93 NW6       30.22
EASTON*        MOSUNNY   36  36 100 N13G23    30.28R WCI  27

$$

MDZ017>025-021600-
SOUTHERN MARYLAND

CITY           SKY/WX    TMP DP  RH WIND       PRES   REMARKS
PATUXENT RIVER PTSUNNY   35  32  88 NW7       30.23R
ST INIGOES     CLOUDY    34  31  88 W6        30.23R FOG
LEONARDTOWN*   SUNNY     36  34  93 NW7       30.25R

$$

MDZ003>005-021600-
NORTH CENTRAL MARYLAND

CITY           SKY/WX    TMP DP  RH WIND       PRES   REMARKS
FREDERICK*     MOSUNNY   39  18  41 NW16G24   30.31R
HAGERSTOWN APT SUNNY     35  18  49 NW24G35   30.27R WCI  23
WESTMINSTER*   PTSUNNY   34  25  69 NW10G25   30.23R WCI  26

$$

MDZ501>502-021600-
WESTERN MARYLAND

CITY           SKY/WX    TMP DP  RH WIND       PRES   REMARKS
OAKLAND*       PTSUNNY   21 N/A N/A W9G17     30.24S WCI  11
CUMBERLAND*    MOSUNNY   34  21  60 NW15G26   30.36R WCI  24

$$

VAZ025>031-021600-
SHENANDOAH VALLEY

CITY           SKY/WX    TMP DP  RH WIND       PRES   REMARKS
WINCHESTER*    PTSUNNY   41  19  42 NW25G33   30.27R
FRONT ROYAL*   PTSUNNY   41  25  52 NW8       30.25R
LURAY*         FAIR      45  28  53 NW9G18    30.26R
NEW MARKET*    FAIR      41  24  49 W7        30.26R
STAUNTON*      SUNNY     43  21  41 NW14G24   30.26R
WAYNESBORO*    FAIR      43  26  51 N7G17     30.23R

$$

WVZ021-048>050-054>055-021600-
EASTERN WEST VIRGINIA PANHANDLE

CITY           SKY/WX    TMP DP  RH WIND       PRES   REMARKS
MARTINSBURG    PTSUNNY   39  22  50 NW22G30   30.27R WCI  29
PETERSBURG*    NOT AVBL

$$

VAZ036>039-050-021600-
CENTRAL FOOTHILLS

CITY           SKY/WX    TMP DP  RH WIND       PRES   REMARKS
CHARLOTTESVILL SUNNY     49  27  42 N10       30.22R
CULPEPER*      SUNNY     46  30  53 NW8       30.25R
ORANGE*        MOSUNNY   41  37  87 CALM      30.25R FOG
GORDONSVILLE*  FAIR      37  35  93 CALM      30.23R
WARRENTON*     FAIR      46  37  72 N9        30.25R

$$

VAZ055>057-021600-
NORTH AND CENTRAL PIEDMONT

CITY           SKY/WX    TMP DP  RH WIND       PRES   REMARKS
FREDERICKSBRG* SUNNY     42  38  86 N8        30.25R
STAFFORD*      MOSUNNY   41  41 100 N15G23    30.29R

$$

NCZ024-NYZ072-PAZ021-071-VAZ022-071-021600-
OTHER REGIONAL OBSERVATIONS

CITY           SKY/WX    TMP DP  RH WIND       PRES   REMARKS
NEW YORK CITY  PTSUNNY   35  21  56 W9G22     30.14R WCI  28
PHILADELPHIA   PTSUNNY   37  29  72 NW16      30.21R WCI  28
PITTSBURGH     FLURRIES  23  16  74 W13G24    30.39R WCI  11
ROANOKE        PTSUNNY   43  28  55 W16G25    30.28R
RICHMOND       CLOUDY    37  34  87 N15       30.26R FOG     WCI  28
RALEIGH        FOG       41  39  93 CALM      30.25R VSB 3/4

$$

ANZ530>537-021600-
MARINE OBSERVATIONS

STATION/POSITION TIME  TEMP    WIND        PRES
                       AIR SEA DIR/SP/G
                 (UTC) (F)     (DEG/KT/KT) (MB)
THOMAS PT LIGHT  1500   38 31  300/  8/  9 1025.7R
BALT KEY BRIDGE  1400   37                 1022.8R
COVE POINT       1400   34                 1022.4R
LEWISETTA        1400   34 32              1022.6R
SOLOMONS ISLAND  1400      32                N/A

$$



USA.gov is the U.S. government's official web portal to all federal, state and local government web resources and services.